Regional Weather Roundup
Issued by NWS

Home | Current Version | Previous Version | Text Only | Print | Product List | Glossary On
Versions: 1 2 3 4 5 6 7 8 9 10 11 12 13 14 15 16 17 18 19 20 21 22 23 24 25 26 27 28 29 30 31 32 33 34 35 36 37 38 39 40 41 42 43 44 45 46 47 48 49
000
ASUS46 KPQR 010710
RWROR

OREGON REGIONAL WEATHER ROUNDUP
NATIONAL WEATHER SERVICE PORTLAND OR
1100 PM PST SAT FEB 28 2015

NOTE: "FAIR" INDICATES FEW OR NO CLOUDS BELOW 12,000 FEET WITH
NO SIGNIFICANT WEATHER AND/OR OBSTRUCTIONS TO VISIBILITY.

ORZ001>013-010800-
NORTHWEST OREGON


CITY           SKY/WX    TMP DP  RH WIND       PRES   REMARKS
ASTORIA        CLEAR     37  33  85 SE6       30.23R WCI  32
NEWPORT        CLEAR     37  32  81 E9        30.23R WCI  31
PORTLAND       CLEAR     40  31  70 E5        30.24S
VANCOUVER WA   CLEAR     35  25  66 CALM      30.23S
SCAPPOOSE      CLEAR     33  31  92 W3        30.23R
HILLSBORO      CLEAR     34  31  88 NW3       30.23R
AURORA         CLEAR     42  22  44 VRB3      30.23R
MCMINNVILLE    CLEAR     38  30  73 N3        30.23R
SALEM          CLEAR     35  28  75 W3        30.21R
CORVALLIS        N/A     34  28  80 W3        30.21R
EUGENE         CLEAR     36  28  73 NW6       30.20R WCI  31
$$

ORZ021-028-010800-
SOUTHWEST OREGON


CITY           SKY/WX    TMP DP  RH WIND       PRES   REMARKS
NORTH BEND     CLEAR     41  39  93 CALM      30.18R
BROOKINGS      CLEAR     53  25  34 NE8       30.06R
ROSEBURG       CLEAR     39  31  72 VRB3      30.16R
SEXTON SUMMIT  CLEAR     33  18  53 NE12      30.06R WCI  24
MEDFORD        CLEAR     40  26  57 CALM      30.12R
$$

ORZ014>016-041-010800-
COLUMBIA GORGE


CITY           SKY/WX    TMP DP  RH WIND       PRES   REMARKS
TROUTDALE      CLEAR     39  26  59 CALM      30.23R
THE DALLES     CLEAR     32  23  69 E5        30.28R WCI  27
$$

ORZ029>031-041-044-049-050-061>064-502-503-505>511-010800-
EASTERN OREGON


CITY           SKY/WX    TMP DP  RH WIND       PRES   REMARKS
REDMOND        CLEAR     23  16  74 CALM      30.18S
BEND           CLEAR     27  14  59 NW8       30.17R WCI  18
PRINEVILLE     CLEAR     23  16  74 CALM      30.18R
KLAMATH FALLS  CLEAR     29  14  53 CALM      30.08R
LAKEVIEW       MOCLDY    25  16  68 N14       30.06R WCI  13
HERMISTON      CLEAR     25  18  74 SE7       30.24R WCI  17
PENDLETON      CLEAR     27  20  75 SE7       30.21R WCI  19
JOHN DAY       CLEAR     24  18  80 E6        30.16R WCI  16
MEACHAM        CLEAR     19  16  88 CALM      30.14S
LA GRANDE      CLEAR     30  14  51 N9        30.14S WCI  22
BAKER CITY     CLEAR     25  15  66 E5        30.13R WCI  19
BURNS          CLEAR     24  16  71 W9        30.08R WCI  14
ROME             N/A     29  22  75 E3        30.04R
ONTARIO        CLEAR     35  19  52 NW14      30.09R WCI  26
$$


USA.gov is the U.S. government's official web portal to all federal, state and local government web resources and services.